www.pogodaiklimat.ru

Погода и климат >> Архив погоды >> Таиланд >> Satun


ПОГОДА в Satun

  • Прогноз погоды в Satun
  • Монитор погоды в Satun
  • Климат города

АРХИВ ПОГОДЫ в Satun

Время (UTC), дата Ветер
(напр.,м/с)
 
Видим.   Явления Облачность Т
(С)
Тd
(С)
f
(%)
Тe
(С)
Тes
(С)
Комфортность P
(гПа)
Po
(гПа)
Тmin
(С)
Tmax
(С)
R
(мм)
S
(см)
15 14.02 СВ 2 10 км 4/1 600 м
[Cu hum Cs]
+26.5 +20.2 68 +33 +33 очень
душно
1016.2 1015.5
18 14.02 штиль 0 10 км 4/1 600 м
[Cu hum Cs]
+26.1 +20.6 72 +33 +33 очень
душно
1015.5 1014.8
21 14.02 штиль 0 10 км 6/3 600 м
[Cu med, cong Cs]
+26.0 +20.8 73 +33 +33 очень
душно
1013.4 1012.7
00 15.02 В 4 10 км 6/3 600 м
[Cu med, cong Cs]
+26.1 +20.6 72 +33 +33 очень
душно
1014.0 1013.3 +25.6
03 15.02 З 2 10 км 6/3 600 м
[Cu med, cong Cs]
+30.1 +21.0 58 +37 +46 очень
душно
1015.0 1014.3
06 15.02 В 9 10 км 6/3 600 м
[Cu med, cong Cs]
+32.5 +20.9 50 +40 +41 очень
душно
1013.3 1012.7
09 15.02 В 8 10 км 8/3 600 м
[Cu med, cong Cs]
+30.4 +19.9 53 +37 +37 очень
душно
1012.0 1011.3
12 15.02 СВ 2 10 км 8/3 600 м
[Cu med, cong Cs]
+28.0 +19.6 60 +34 +34 очень
душно
1013.0 1012.3 +32.7
15 15.02 СВ 6 10 км 6/3 600 м
[Cu med, cong Cs]
+26.8 +20.4 68 +33 +33 очень
душно
1014.6 1013.9
18 15.02 В 5 10 км 5/1 600 м
[Cu med, cong Cs]
+26.3 +20.5 70 +33 +33 очень
душно
1013.5 1012.8
21 15.02 штиль 0 10 км 5/1 600 м
[Cu med, cong Cs]
+26.2 +20.6 71 +33 +33 очень
душно
1011.7 1011.0
00 16.02 штиль 0 10 км 5/1 600 м
[Cu med, cong Cs]
+26.0 +19.8 69 +32 +32 очень
душно
1012.3 1011.6 +25.5
03 16.02 В 4 11 км 4/1 600 м
[Cu med, cong Cs]
+29.8 +21.1 60 +37 +45 очень
душно
1013.7 1013.0
06 16.02 В 3 11 км 5/3 600 м
[Cu med, cong Cs]
+32.9 +21.0 50 +40 +51 опасность
солнечного
удара
1011.6 1011.0
09 16.02 В 2 10 км 8/3 600 м
[Cu med, cong Ac lent Cs]
+31.5 +20.7 53 +39 +41 очень
душно
1009.6 1009.0
12 16.02 штиль 0 10 км 8/3 600 м
[Cu med, cong Ac lent Cs]
+28.3 +21.1 65 +36 +36 очень
душно
1011.4 1010.7 +33.2
15 16.02 штиль 0 10 км 5/1 600 м
[Cu med, cong Cs]
+26.5 +20.4 69 +33 +33 очень
душно
1013.0 1012.3
18 16.02 СВ 2 10 км 4/1 600 м
[Cu hum Cs]
+25.5 +20.3 73 +31 +31 очень
душно
1012.7 1012.0
21 16.02 штиль 0 10 км 4/1 600 м
[Cu hum Cs]
+25.2 +20.3 74 +31 +31 очень
душно
1011.8 1011.1
00 17.02 В 3 10 км 5/1 600 м
[Cu hum Cs]
+25.2 +20.3 74 +31 +31 очень
душно
1012.7 1012.0 +24.8
03 17.02 СВ 3 11 км 3/1 600 м
[Cu hum Cs]
+30.0 +20.3 56 +37 +46 очень
душно
1013.6 1012.9
06 17.02 В 5 11 км 3/1 600 м
[Cu med, cong Cs]
+32.6 +20.1 48 +39 +48 очень
душно
1011.4 1010.7
09 17.02 СВ 7 10 км 4/1 600 м
[Cu hum Cs]
+33.0 +20.6 48 +40 +41 очень
душно
1009.5 1008.8
12 17.02 штиль 0 10 км 4/1 600 м
[Cu med, cong Cs]
+27.8 +20.5 65 +35 +35 очень
душно
1011.5 1010.9 +33.5
15 17.02 штиль 0 10 км 5/3 600 м
[Cu med, cong Cs]
+26.2 +20.9 73 +33 +33 очень
душно
1013.2 1012.5
18 17.02 штиль 0 10 км 5/3 600 м
[Cu med, cong Cs]
+26.5 +21.1 72 +33 +33 очень
душно
1010.0 1009.4
21 17.02 СВ 4 10 км 5/3 600 м
[Cu med, cong Cs]
+26.1 +21.4 75 +33 +33 очень
душно
1010.0 1009.3
00 18.02 штиль 0 10 км 6/3 600 м
[Cu med, cong Cs]
+26.4 +22.1 77 +34 +35 очень
душно
1012.3 1011.6 +25.7
03 18.02 С 4 10 км 6/3 600 м
[Cu med, cong Cs]
+31.0 +23.0 62 +41 +47 опасность
перегрева
1013.4 1012.8
06 18.02 СВ 7 10 км 6/3 600 м
[Cu med, cong Cs]
+33.0 +22.9 55 +43 +46 опасность
перегрева
1012.3 1011.7
09 18.02 СВ 4 10 км 6/3 600 м
[Cu med, cong Cs]
+31.0 +22.2 60 +40 +43 очень
душно
1010.3 1009.6
12 18.02 В 6 10 км 8/3 600 м
[Cu med, cong Ac lent Cs]
+27.5 +22.6 75 +36 +36 очень
душно
1011.9 1011.2 +33.4
15 18.02 В 5 10 км 8/3 600 м
[Cu med, cong Ac lent Cs]
+27.2 +22.5 76 +36 +36 очень
душно
1013.1 1012.4
18 18.02 штиль 0 10 км 8/3 600 м
[Cu med, cong Ac lent Cs]
+25.6 +22.3 82 +33 +33 очень
душно
1012.9 1012.2
21 18.02 штиль 0 10 км {дождь} 8/3 600 м
[Cu med, cong Ac lent Cs]
+25.3 +22.6 85 +33 +33 очень
душно
1012.3 1011.6 0.2
00 19.02 СВ 5 10 км {дождь} 9/4 600 м
[Cu med, cong Ac lent Cs]
+26.1 +22.2 79 +34 +34 очень
душно
1012.0 1011.3 +25.0 0.2
03 19.02 В 6 10 км 5/1 600 м
[Cu med, cong Cs]
+30.4 +21.5 59 +38 +43 очень
душно
1013.3 1012.6
06 19.02 В 3 10 км 5/1 600 м
[Cu med, cong Cs]
+33.5 +22.3 52 +43 +56 опасность
перегрева
1010.2 1009.6
09 19.02 СВ 2 10 км 8/3 600 м
[Cu med, cong Cs]
+33.0 +21.8 52 +41 +45 опасность
перегрева
1007.6 1006.9
12 19.02 В 2 10 км 6/3 600 м
[Cu med, cong Cs]
+29.7 +20.7 58 +37 +37 очень
душно
1009.0 1008.4 +34.7
15 19.02 СВ 6 10 км 4/1 600 м
[Cu hum Cs]
+27.7 +20.6 65 +34 +34 очень
душно
1011.3 1010.6
18 19.02 штиль 0 10 км 4/1 600 м
[Cu hum Cs]
+27.0 +21.0 70 +34 +34 очень
душно
1010.5 1009.9
21 19.02 штиль 0 10 км 4/1 600 м
[Cu hum Cs]
+26.6 +21.2 72 +34 +34 очень
душно
1009.2 1008.5
00 20.02 штиль 0 10 км 8/1 600 м
[Cu med, cong Ac trans Cs]
+26.4 +20.8 71 +33 +33 очень
душно
1009.2 1008.5 +25.0
03 20.02 В 2 10 км 5/1 600 м
[Cu med, cong Ac lent Cs]
+31.8 +21.6 55 +40 +50 очень
душно
1011.2 1010.5
06 20.02 СВ 5 10 км 6/3 600 м
[Cu med, cong Ac lent Cs]
+33.3 +22.4 53 +43 +48 опасность
перегрева
1009.1 1008.4
09 20.02 СВ 3 10 км 5/3 600 м
[Cu med, cong Cs]
+34.0 +22.4 51 +43 +47 опасность
перегрева
1006.5 1005.8
12 20.02 штиль 0 10 км 6/1 600 м
[Cu med, cong Cs]
+29.5 +22.8 67 +39 +39 очень
душно
1007.5 1006.9 +34.5
15 20.02 штиль 0 10 км 5/1 600 м
[Cu hum Cs]
+27.2 +22.9 77 +36 +36 очень
душно
1010.9 1010.2
18 20.02 штиль 0 10 км 4/1 600 м
[Cu hum Cs]
+26.0 +23.1 84 +35 +35 очень
душно
1010.6 1009.9
21 20.02 штиль 0 10 км 4/1 600 м
[Cu hum Cs]
+24.9 +23.0 89 +33 +33 очень
душно
1009.3 1008.6
00 21.02 штиль 0 10 км 5/1 600 м
[Cu hum Cs]
+24.0 +22.5 91 +31 +32 очень
душно
1010.7 1010.0 +23.5
03 21.02 штиль 0 10 км 6/3 600 м
[Cu med, cong Cs]
+31.5 +23.6 63 +43 +54 опасность
перегрева
1012.8 1012.1
06 21.02 В 4 10 км 8/3 600 м
[Cu med, cong Ac lent Cs]
+33.0 +22.9 55 +43 +49 опасность
перегрева
1010.0 1009.4
09 21.02 СВ 4 10 км 8/3 600 м
[Cu med, cong Ac lent Cs]
+33.0 +22.5 54 +42 +44 опасность
перегрева
1007.5 1006.8
12 21.02 штиль 0 10 км 8/3 600 м
[Cu med, cong Ac lent Cs]
+28.8 +22.6 69 +38 +38 очень
душно
1009.2 1008.5 +34.0

 

Местоположение метеостанции Satun (Таиланд): широта 6.65 долгота 100.08 высота над уровнем моря 6 м.

В архиве по умолчанию представлена погода в Satun за последнюю неделю. Архивные данные за месяц целиком и за предыдущие месяцы, начиная с января 2011 года, Вы можете получить, выбрав интересующий диапазон дат из раскрывающегося списка и нажав кнопку "Ввод!".

Внимание! Время в таблицах - всемирное. Для получения местного времени необходимо прибавить поправку, которая в Satun равна 7 ч.

Смотрите также архив погоды в соседних городах и на ближайших метеорологических станциях:

Погода в Sa-dao (Таиланд) (39 км)
Погода в Hat Yai (Таиланд) (49 км)
Погода в Langkawi (Малайзия) (53 км)
Погода в Alor Star (Малайзия) (61 км)
Погода в Songkhla (Таиланд) (85 км)
Погода в Phatthalung Agromet (Таиланд) (104 км)
Погода в Trang (Таиланд) (109 км)
Погода в Pattani (Таиланд) (119 км)
Погода в Yala Agromet (Таиланд) (133 км)
Погода в Butterworth Air Base (Малайзия) (135 км)

Пояснения к столбцам:

Ветер - указаны скорость ветра в м/с - средняя за 10 мин, порывы в срок и между сроками (в фигурных скобках) и направление, откуда дует ветер: С - северный, СВ - северо-восточный, В - восточный, ЮВ - юго-восточный, Ю - южный, ЮЗ - юго-западный, З - западный, СЗ - северо-западный.
Видимость - горизонтальная дальность видимости в метрах или километрах. При видимости от 1 до 10 км при отсутствии осадков обычно наблюдается дымка, при ухудшении видимости до 1 км и менее - туман. В сухую погоду видимость может ухудшаться дымом, пылью или мглою.
Явления - указаны атмосферные явления, наблюдавшиеся в срок или в последний час перед сроком; фигурными скобками обозначены явления, наблюдавшиеся между сроками (за 1-3 часа до срока); квадратными скобками обозначены град или гололедные отложения с указанием их диаметра в мм.
Облачность - указаны через наклонную черту общая и нижняя облачность в баллах и высота нижней границы облаков в метрах; квадратными скобками обозначены формы облаков: Ci - перистые, Cs - перисто-слоистые, Cc - перисто-кучевые, Ac - высококучевые, As - высокослоистые, Sc - слоисто-кучевые, Ns - слоисто-дождевые, Cu - кучевые, Cb - кучево-дождевые. Подробнее классификацию облаков см. в Атласе облаков (PDF).
T - Температура воздуха - температура, измеренная на высоте 2 м над землей.
Td - Температура точки росы - температура, при понижении до которой содержащийся в воздухе водяной пар достигнет насыщения.
f - Относительная влажность воздуха - влажноcть воздуха, измеренная на высоте 2 м над землей.
Te - Эффективная температура - температура, которую ощущает одетый по сезону человек в тени. Характеристика душности погоды. При расчете учитывается влияние влажности воздуха и скорости ветра на теплоощущения человека.
Tes - Эффективная температура на солнце - температура, которую ощущает человек, с поправкой на солнечный нагрев. Характеристика знойности погоды. Зависит от высоты солнца над горизонтом, облачности и скорости ветра. Ночью, в пасмурную погоду, а также при ветре 12 м/с и более поправка равна нулю.
P - Атмосферное давление - приведенное к уровню моря атмосферное давление.
Po - Атмосферное давление - измеренное на уровне метеостанции атмосферное давление.
Tmin - Минимальная температура - минимум температуры воздуха на высоте 2 м над землей.
Tmax - Максимальная температура - максимум температуры воздуха на высоте 2 м над землей.
R - Количество осадков - Количество выпавших осадков, мм. При наведении курсора мыши на число - период времени, за который выпало указанное количество осадков.
S - Снежный покров - Высота снежного покрова, см. При наведении курсора мыши на число - состояние снежного покрова и степень покрытия местности в баллах.